owner,sensor,date,latitude,longitude,sea_surface_height_above_sea_level,qcFlag 
COMPS,ioos:station:USF.COMPS:EGK:1,2010-04-01T00:00:00Z,27.6010,-82.7510,-0.418,1111122 
COMPS,ioos:station:USF.COMPS:EGK:1,2010-04-01T00:06:00Z,27.6010,-82.7510,-0.418,1111122 
COMPS,ioos:station:USF.COMPS:EGK:1,2010-04-01T00:12:00Z,27.6010,-82.7510,-0.418,1111122 
COMPS,ioos:station:USF.COMPS:EGK:1,2010-04-01T00:18:00Z,27.6010,-82.7510,-0.418,1111122 
COMPS,ioos:station:USF.COMPS:EGK:1,2010-04-01T00:24:00Z,27.6010,-82.7510,-0.418,1111122 
COMPS,ioos:station:USF.COMPS:EGK:1,2010-04-01T00:30:00Z,27.6010,-82.7510,-0.418,1111122 
COMPS,ioos:station:USF.COMPS:EGK:1,2010-04-01T00:36:00Z,27.6010,-82.7510,-0.418,1111122 
COMPS,ioos:station:USF.COMPS:EGK:1,2010-04-01T00:42:00Z,27.6010,-82.7510,-0.418,1111122 
COMPS,ioos:station:USF.COMPS:EGK:1,2010-04-01T00:48:00Z,27.6010,-82.7510,-0.418,1111122 
COMPS,ioos:station:USF.COMPS:EGK:1,2010-04-01T00:54:00Z,27.6010,-82.7510,-0.418,1111122 
COMPS,ioos:station:USF.COMPS:EGK:1,2010-04-01T01:00:00Z,27.6010,-82.7510,-0.418,1111122 
COMPS,ioos:station:USF.COMPS:EGK:1,2010-04-01T01:06:00Z,27.6010,-82.7510,-0.417,1111122 
COMPS,ioos:station:USF.COMPS:EGK:1,2010-04-01T01:12:00Z,27.6010,-82.7510,-0.417,1111122 
COMPS,ioos:station:USF.COMPS:EGK:1,2010-04-01T01:18:00Z,27.6010,-82.7510,-0.417,1111122 
COMPS,ioos:station:USF.COMPS:EGK:1,2010-04-01T01:24:00Z,27.6010,-82.7510,-0.417,1111122 
COMPS,ioos:station:USF.COMPS:EGK:1,2010-04-01T01:30:00Z,27.6010,-82.7510,-0.417,1111122 
COMPS,ioos:station:USF.COMPS:EGK:1,2010-04-01T01:36:00Z,27.6010,-82.7510,-0.417,1111122 
COMPS,ioos:station:USF.COMPS:EGK:1,2010-04-01T01:42:00Z,27.6010,-82.7510,-0.417,1111122 
COMPS,ioos:station:USF.COMPS:EGK:1,2010-04-01T01:48:00Z,27.6010,-82.7510,-0.417,1111122 
COMPS,ioos:station:USF.COMPS:EGK:1,2010-04-01T01:54:00Z,27.6010,-82.7510,-0.417,1111122 
COMPS,ioos:station:USF.COMPS:EGK:1,2010-04-01T02:00:00Z,27.6010,-82.7510,-0.417,1111122 
COMPS,ioos:station:USF.COMPS:EGK:1,2010-04-01T02:06:00Z,27.6010,-82.7510,-0.417,1111122 
COMPS,ioos:station:USF.COMPS:EGK:1,2010-04-01T02:12:00Z,27.6010,-82.7510,-0.417,1111122 
COMPS,ioos:station:USF.COMPS:EGK:1,2010-04-01T02:18:00Z,27.6010,-82.7510,-0.417,1111122 
COMPS,ioos:station:USF.COMPS:EGK:1,2010-04-01T02:24:00Z,27.6010,-82.7510,-0.417,1111122 
COMPS,ioos:station:USF.COMPS:EGK:1,2010-04-01T02:30:00Z,27.6010,-82.7510,-0.416,1111122 
COMPS,ioos:station:USF.COMPS:EGK:1,2010-04-01T02:36:00Z,27.6010,-82.7510,-0.416,1111122 
COMPS,ioos:station:USF.COMPS:EGK:1,2010-04-01T02:42:00Z,27.6010,-82.7510,-0.416,1111122 
COMPS,ioos:station:USF.COMPS:EGK:1,2010-04-01T02:48:00Z,27.6010,-82.7510,-0.417,1111122 
COMPS,ioos:station:USF.COMPS:EGK:1,2010-04-01T02:54:00Z,27.6010,-82.7510,-0.415,1111122 
COMPS,ioos:station:USF.COMPS:EGK:1,2010-04-01T03:00:00Z,27.6010,-82.7510,-0.414,1111122 
COMPS,ioos:station:USF.COMPS:EGK:1,2010-04-01T03:06:00Z,27.6010,-82.7510,-0.415,1111122 
COMPS,ioos:station:USF.COMPS:EGK:1,2010-04-01T03:12:00Z,27.6010,-82.7510,-0.419,1111122 
COMPS,ioos:station:USF.COMPS:EGK:1,2010-04-01T03:18:00Z,27.6010,-82.7510,-0.401,1111122 
COMPS,ioos:station:USF.COMPS:EGK:1,2010-04-01T03:24:00Z,27.6010,-82.7510,-0.358,1111122 
COMPS,ioos:station:USF.COMPS:EGK:1,2010-04-01T03:30:00Z,27.6010,-82.7510,-0.354,1111122 
COMPS,ioos:station:USF.COMPS:EGK:1,2010-04-01T03:36:00Z,27.6010,-82.7510,-0.342,1111122 
COMPS,ioos:station:USF.COMPS:EGK:1,2010-04-01T03:42:00Z,27.6010,-82.7510,-0.331,1111122 
COMPS,ioos:station:USF.COMPS:EGK:1,2010-04-01T03:48:00Z,27.6010,-82.7510,-0.32,1111122 
COMPS,ioos:station:USF.COMPS:EGK:1,2010-04-01T03:54:00Z,27.6010,-82.7510,-0.314,1111122 
COMPS,ioos:station:USF.COMPS:EGK:1,2010-04-01T04:00:00Z,27.6010,-82.7510,-0.302,1111122 
COMPS,ioos:station:USF.COMPS:EGK:1,2010-04-01T04:06:00Z,27.6010,-82.7510,-0.293,1111122 
COMPS,ioos:station:USF.COMPS:EGK:1,2010-04-01T04:12:00Z,27.6010,-82.7510,-0.287,1111122 
COMPS,ioos:station:USF.COMPS:EGK:1,2010-04-01T04:18:00Z,27.6010,-82.7510,-0.28,1111122 
COMPS,ioos:station:USF.COMPS:EGK:1,2010-04-01T04:24:00Z,27.6010,-82.7510,-0.272,1111122 
COMPS,ioos:station:USF.COMPS:EGK:1,2010-04-01T04:30:00Z,27.6010,-82.7510,-0.267,1111122 
COMPS,ioos:station:USF.COMPS:EGK:1,2010-04-01T04:36:00Z,27.6010,-82.7510,-0.258,1111122 
COMPS,ioos:station:USF.COMPS:EGK:1,2010-04-01T04:42:00Z,27.6010,-82.7510,-0.247,1111122 
COMPS,ioos:station:USF.COMPS:EGK:1,2010-04-01T04:48:00Z,27.6010,-82.7510,-0.236,1111122 
COMPS,ioos:station:USF.COMPS:EGK:1,2010-04-01T04:54:00Z,27.6010,-82.7510,-0.224,1111122 
COMPS,ioos:station:USF.COMPS:EGK:1,2010-04-01T05:00:00Z,27.6010,-82.7510,-0.219,1111122 
COMPS,ioos:station:USF.COMPS:EGK:1,2010-04-01T05:06:00Z,27.6010,-82.7510,-0.213,1111122 
COMPS,ioos:station:USF.COMPS:EGK:1,2010-04-01T05:12:00Z,27.6010,-82.7510,-0.206,1111122 
COMPS,ioos:station:USF.COMPS:EGK:1,2010-04-01T05:18:00Z,27.6010,-82.7510,-0.2,1111122 
COMPS,ioos:station:USF.COMPS:EGK:1,2010-04-01T05:24:00Z,27.6010,-82.7510,-0.197,1111122 
COMPS,ioos:station:USF.COMPS:EGK:1,2010-04-01T05:30:00Z,27.6010,-82.7510,-0.186,1111122 
COMPS,ioos:station:USF.COMPS:EGK:1,2010-04-01T05:36:00Z,27.6010,-82.7510,-0.182,1111122 
COMPS,ioos:station:USF.COMPS:EGK:1,2010-04-01T05:42:00Z,27.6010,-82.7510,-0.173,1111122 
COMPS,ioos:station:USF.COMPS:EGK:1,2010-04-01T05:48:00Z,27.6010,-82.7510,-0.168,1111122 
COMPS,ioos:station:USF.COMPS:EGK:1,2010-04-01T05:54:00Z,27.6010,-82.7510,-0.165,1111122 
COMPS,ioos:station:USF.COMPS:EGK:1,2010-04-01T06:00:00Z,27.6010,-82.7510,-0.163,1111122 
COMPS,ioos:station:USF.COMPS:EGK:1,2010-04-01T06:06:00Z,27.6010,-82.7510,-0.161,1111122 
COMPS,ioos:station:USF.COMPS:EGK:1,2010-04-01T06:12:00Z,27.6010,-82.7510,-0.164,1111122 
COMPS,ioos:station:USF.COMPS:EGK:1,2010-04-01T06:18:00Z,27.6010,-82.7510,-0.165,1111122 
COMPS,ioos:station:USF.COMPS:EGK:1,2010-04-01T06:24:00Z,27.6010,-82.7510,-0.154,1111122 
COMPS,ioos:station:USF.COMPS:EGK:1,2010-04-01T06:30:00Z,27.6010,-82.7510,-0.148,1111122 
COMPS,ioos:station:USF.COMPS:EGK:1,2010-04-01T06:36:00Z,27.6010,-82.7510,-0.139,1111122 
COMPS,ioos:station:USF.COMPS:EGK:1,2010-04-01T06:42:00Z,27.6010,-82.7510,-0.142,1111122 
COMPS,ioos:station:USF.COMPS:EGK:1,2010-04-01T06:48:00Z,27.6010,-82.7510,-0.146,1111122 
COMPS,ioos:station:USF.COMPS:EGK:1,2010-04-01T06:54:00Z,27.6010,-82.7510,-0.149,1111122 
COMPS,ioos:station:USF.COMPS:EGK:1,2010-04-01T07:00:00Z,27.6010,-82.7510,-0.148,1111122 
COMPS,ioos:station:USF.COMPS:EGK:1,2010-04-01T07:06:00Z,27.6010,-82.7510,-0.147,1111122 
COMPS,ioos:station:USF.COMPS:EGK:1,2010-04-01T07:12:00Z,27.6010,-82.7510,-0.148,1111122 
COMPS,ioos:station:USF.COMPS:EGK:1,2010-04-01T07:18:00Z,27.6010,-82.7510,-0.156,1111122 
COMPS,ioos:station:USF.COMPS:EGK:1,2010-04-01T07:24:00Z,27.6010,-82.7510,-0.161,1111122 
COMPS,ioos:station:USF.COMPS:EGK:1,2010-04-01T07:30:00Z,27.6010,-82.7510,-0.159,1111122 
COMPS,ioos:station:USF.COMPS:EGK:1,2010-04-01T07:36:00Z,27.6010,-82.7510,-0.153,1111122 
COMPS,ioos:station:USF.COMPS:EGK:1,2010-04-01T07:42:00Z,27.6010,-82.7510,-0.153,1111122 
COMPS,ioos:station:USF.COMPS:EGK:1,2010-04-01T07:48:00Z,27.6010,-82.7510,-0.16,1111122 
COMPS,ioos:station:USF.COMPS:EGK:1,2010-04-01T07:54:00Z,27.6010,-82.7510,-0.157,1111122 
COMPS,ioos:station:USF.COMPS:EGK:1,2010-04-01T08:00:00Z,27.6010,-82.7510,-0.152,1111122 
COMPS,ioos:station:USF.COMPS:EGK:1,2010-04-01T08:06:00Z,27.6010,-82.7510,-0.167,1111122 
COMPS,ioos:station:USF.COMPS:EGK:1,2010-04-01T08:12:00Z,27.6010,-82.7510,-0.165,1111122 
COMPS,ioos:station:USF.COMPS:EGK:1,2010-04-01T08:18:00Z,27.6010,-82.7510,-0.169,1111122 
COMPS,ioos:station:USF.COMPS:EGK:1,2010-04-01T08:24:00Z,27.6010,-82.7510,-0.17,1111122 
COMPS,ioos:station:USF.COMPS:EGK:1,2010-04-01T08:30:00Z,27.6010,-82.7510,-0.177,1111122 
COMPS,ioos:station:USF.COMPS:EGK:1,2010-04-01T08:36:00Z,27.6010,-82.7510,-0.184,1111122 
COMPS,ioos:station:USF.COMPS:EGK:1,2010-04-01T08:42:00Z,27.6010,-82.7510,-0.191,1111122 
COMPS,ioos:station:USF.COMPS:EGK:1,2010-04-01T08:48:00Z,27.6010,-82.7510,-0.197,1111122 
COMPS,ioos:station:USF.COMPS:EGK:1,2010-04-01T08:54:00Z,27.6010,-82.7510,-0.195,1111122 
COMPS,ioos:station:USF.COMPS:EGK:1,2010-04-01T09:00:00Z,27.6010,-82.7510,-0.196,1111122 
COMPS,ioos:station:USF.COMPS:EGK:1,2010-04-01T09:06:00Z,27.6010,-82.7510,-0.205,1111122 
COMPS,ioos:station:USF.COMPS:EGK:1,2010-04-01T09:12:00Z,27.6010,-82.7510,-0.215,1111122 
COMPS,ioos:station:USF.COMPS:EGK:1,2010-04-01T09:18:00Z,27.6010,-82.7510,-0.222,1111122 
COMPS,ioos:station:USF.COMPS:EGK:1,2010-04-01T09:24:00Z,27.6010,-82.7510,-0.226,1111122 
COMPS,ioos:station:USF.COMPS:EGK:1,2010-04-01T09:30:00Z,27.6010,-82.7510,-0.232,1111122 
COMPS,ioos:station:USF.COMPS:EGK:1,2010-04-01T09:36:00Z,27.6010,-82.7510,-0.24,1111122 
COMPS,ioos:station:USF.COMPS:EGK:1,2010-04-01T09:42:00Z,27.6010,-82.7510,-0.246,1111122 
COMPS,ioos:station:USF.COMPS:EGK:1,2010-04-01T09:48:00Z,27.6010,-82.7510,-0.252,1111122 
COMPS,ioos:station:USF.COMPS:EGK:1,2010-04-01T09:54:00Z,27.6010,-82.7510,-0.262,1111122 
COMPS,ioos:station:USF.COMPS:EGK:1,2010-04-01T10:00:00Z,27.6010,-82.7510,-0.269,1111122 
COMPS,ioos:station:USF.COMPS:EGK:1,2010-04-01T10:06:00Z,27.6010,-82.7510,-0.271,1111122 
COMPS,ioos:station:USF.COMPS:EGK:1,2010-04-01T10:12:00Z,27.6010,-82.7510,-0.271,1111122 
COMPS,ioos:station:USF.COMPS:EGK:1,2010-04-01T10:18:00Z,27.6010,-82.7510,-0.274,1111122 
COMPS,ioos:station:USF.COMPS:EGK:1,2010-04-01T10:24:00Z,27.6010,-82.7510,-0.28,1111122 
COMPS,ioos:station:USF.COMPS:EGK:1,2010-04-01T10:30:00Z,27.6010,-82.7510,-0.284,1111122 
COMPS,ioos:station:USF.COMPS:EGK:1,2010-04-01T10:36:00Z,27.6010,-82.7510,-0.291,1111122 
COMPS,ioos:station:USF.COMPS:EGK:1,2010-04-01T10:42:00Z,27.6010,-82.7510,-0.293,1111122 
COMPS,ioos:station:USF.COMPS:EGK:1,2010-04-01T10:48:00Z,27.6010,-82.7510,-0.291,1111122 
COMPS,ioos:station:USF.COMPS:EGK:1,2010-04-01T10:54:00Z,27.6010,-82.7510,-0.295,1111122 
COMPS,ioos:station:USF.COMPS:EGK:1,2010-04-01T11:00:00Z,27.6010,-82.7510,-0.296,1111122 
COMPS,ioos:station:USF.COMPS:EGK:1,2010-04-01T11:06:00Z,27.6010,-82.7510,-0.297,1111122 
COMPS,ioos:station:USF.COMPS:EGK:1,2010-04-01T11:12:00Z,27.6010,-82.7510,-0.296,1111122 
COMPS,ioos:station:USF.COMPS:EGK:1,2010-04-01T11:18:00Z,27.6010,-82.7510,-0.298,1111122 
COMPS,ioos:station:USF.COMPS:EGK:1,2010-04-01T11:24:00Z,27.6010,-82.7510,-0.298,1111122 
COMPS,ioos:station:USF.COMPS:EGK:1,2010-04-01T11:30:00Z,27.6010,-82.7510,-0.295,1111122 
COMPS,ioos:station:USF.COMPS:EGK:1,2010-04-01T11:36:00Z,27.6010,-82.7510,-0.294,1111122 
COMPS,ioos:station:USF.COMPS:EGK:1,2010-04-01T11:42:00Z,27.6010,-82.7510,-0.291,1111122 
COMPS,ioos:station:USF.COMPS:EGK:1,2010-04-01T11:48:00Z,27.6010,-82.7510,-0.283,1111122 
COMPS,ioos:station:USF.COMPS:EGK:1,2010-04-01T11:54:00Z,27.6010,-82.7510,-0.28,1111122 
COMPS,ioos:station:USF.COMPS:EGK:1,2010-04-01T12:00:00Z,27.6010,-82.7510,-0.275,1111122 
COMPS,ioos:station:USF.COMPS:EGK:1,2010-04-01T12:06:00Z,27.6010,-82.7510,-0.269,1111122 
COMPS,ioos:station:USF.COMPS:EGK:1,2010-04-01T12:12:00Z,27.6010,-82.7510,-0.263,1111122 
COMPS,ioos:station:USF.COMPS:EGK:1,2010-04-01T12:18:00Z,27.6010,-82.7510,-0.258,1111122 
COMPS,ioos:station:USF.COMPS:EGK:1,2010-04-01T12:24:00Z,27.6010,-82.7510,-0.254,1111122 
COMPS,ioos:station:USF.COMPS:EGK:1,2010-04-01T12:30:00Z,27.6010,-82.7510,-0.249,1111122 
COMPS,ioos:station:USF.COMPS:EGK:1,2010-04-01T12:36:00Z,27.6010,-82.7510,-0.238,1111122 
COMPS,ioos:station:USF.COMPS:EGK:1,2010-04-01T12:42:00Z,27.6010,-82.7510,-0.228,1111122 
COMPS,ioos:station:USF.COMPS:EGK:1,2010-04-01T12:48:00Z,27.6010,-82.7510,-0.221,1111122 
COMPS,ioos:station:USF.COMPS:EGK:1,2010-04-01T12:54:00Z,27.6010,-82.7510,-0.214,1111122 
COMPS,ioos:station:USF.COMPS:EGK:1,2010-04-01T13:00:00Z,27.6010,-82.7510,-0.206,1111122 
COMPS,ioos:station:USF.COMPS:EGK:1,2010-04-01T13:06:00Z,27.6010,-82.7510,-0.191,1111122 
COMPS,ioos:station:USF.COMPS:EGK:1,2010-04-01T13:12:00Z,27.6010,-82.7510,-0.178,1111122 
COMPS,ioos:station:USF.COMPS:EGK:1,2010-04-01T13:18:00Z,27.6010,-82.7510,-0.167,1111122 
COMPS,ioos:station:USF.COMPS:EGK:1,2010-04-01T13:24:00Z,27.6010,-82.7510,-0.159,1111122 
COMPS,ioos:station:USF.COMPS:EGK:1,2010-04-01T13:30:00Z,27.6010,-82.7510,-0.143,1111122 
COMPS,ioos:station:USF.COMPS:EGK:1,2010-04-01T13:36:00Z,27.6010,-82.7510,-0.132,1111122 
COMPS,ioos:station:USF.COMPS:EGK:1,2010-04-01T13:42:00Z,27.6010,-82.7510,-0.117,1111122 
COMPS,ioos:station:USF.COMPS:EGK:1,2010-04-01T13:48:00Z,27.6010,-82.7510,-0.108,1111122 
COMPS,ioos:station:USF.COMPS:EGK:1,2010-04-01T13:54:00Z,27.6010,-82.7510,-0.095,1111122 
COMPS,ioos:station:USF.COMPS:EGK:1,2010-04-01T14:00:00Z,27.6010,-82.7510,-0.095,1111122 
COMPS,ioos:station:USF.COMPS:EGK:1,2010-04-01T14:06:00Z,27.6010,-82.7510,-0.075,1111122 
COMPS,ioos:station:USF.COMPS:EGK:1,2010-04-01T14:12:00Z,27.6010,-82.7510,-0.066,1111122 
COMPS,ioos:station:USF.COMPS:EGK:1,2010-04-01T14:18:00Z,27.6010,-82.7510,-0.049,1111122 
COMPS,ioos:station:USF.COMPS:EGK:1,2010-04-01T14:24:00Z,27.6010,-82.7510,-0.034,1111122 
COMPS,ioos:station:USF.COMPS:EGK:1,2010-04-01T14:30:00Z,27.6010,-82.7510,-0.024,1111122 
COMPS,ioos:station:USF.COMPS:EGK:1,2010-04-01T14:36:00Z,27.6010,-82.7510,-0.012,1111122 
COMPS,ioos:station:USF.COMPS:EGK:1,2010-04-01T14:42:00Z,27.6010,-82.7510,-0.004,1111122 
COMPS,ioos:station:USF.COMPS:EGK:1,2010-04-01T14:48:00Z,27.6010,-82.7510,0.006,1111122 
COMPS,ioos:station:USF.COMPS:EGK:1,2010-04-01T14:54:00Z,27.6010,-82.7510,0.021,1111122 
COMPS,ioos:station:USF.COMPS:EGK:1,2010-04-01T15:00:00Z,27.6010,-82.7510,0.035,1111122 
COMPS,ioos:station:USF.COMPS:EGK:1,2010-04-01T15:06:00Z,27.6010,-82.7510,0.044,1111122 
COMPS,ioos:station:USF.COMPS:EGK:1,2010-04-01T15:12:00Z,27.6010,-82.7510,0.053,1111122 
COMPS,ioos:station:USF.COMPS:EGK:1,2010-04-01T15:18:00Z,27.6010,-82.7510,0.063,1111122 
COMPS,ioos:station:USF.COMPS:EGK:1,2010-04-01T15:24:00Z,27.6010,-82.7510,0.067,1111122 
COMPS,ioos:station:USF.COMPS:EGK:1,2010-04-01T15:30:00Z,27.6010,-82.7510,0.075,1111122 
COMPS,ioos:station:USF.COMPS:EGK:1,2010-04-01T15:36:00Z,27.6010,-82.7510,0.084,1111122 
COMPS,ioos:station:USF.COMPS:EGK:1,2010-04-01T15:42:00Z,27.6010,-82.7510,0.089,1111122 
COMPS,ioos:station:USF.COMPS:EGK:1,2010-04-01T15:48:00Z,27.6010,-82.7510,0.088,1111122 
COMPS,ioos:station:USF.COMPS:EGK:1,2010-04-01T15:54:00Z,27.6010,-82.7510,0.094,1111122 
COMPS,ioos:station:USF.COMPS:EGK:1,2010-04-01T16:00:00Z,27.6010,-82.7510,0.098,1111122 
COMPS,ioos:station:USF.COMPS:EGK:1,2010-04-01T16:06:00Z,27.6010,-82.7510,0.106,1111122 
COMPS,ioos:station:USF.COMPS:EGK:1,2010-04-01T16:12:00Z,27.6010,-82.7510,0.114,1111122 
COMPS,ioos:station:USF.COMPS:EGK:1,2010-04-01T16:18:00Z,27.6010,-82.7510,0.12,1111122 
COMPS,ioos:station:USF.COMPS:EGK:1,2010-04-01T16:24:00Z,27.6010,-82.7510,0.124,1111122 
COMPS,ioos:station:USF.COMPS:EGK:1,2010-04-01T16:30:00Z,27.6010,-82.7510,0.124,1111122 
COMPS,ioos:station:USF.COMPS:EGK:1,2010-04-01T16:36:00Z,27.6010,-82.7510,0.13,1111122 
COMPS,ioos:station:USF.COMPS:EGK:1,2010-04-01T16:42:00Z,27.6010,-82.7510,0.129,1111122 
COMPS,ioos:station:USF.COMPS:EGK:1,2010-04-01T16:48:00Z,27.6010,-82.7510,0.129,1111122 
COMPS,ioos:station:USF.COMPS:EGK:1,2010-04-01T16:54:00Z,27.6010,-82.7510,0.127,1111122 
COMPS,ioos:station:USF.COMPS:EGK:1,2010-04-01T17:00:00Z,27.6010,-82.7510,0.127,1111122 
COMPS,ioos:station:USF.COMPS:EGK:1,2010-04-01T17:06:00Z,27.6010,-82.7510,0.129,1111122 
COMPS,ioos:station:USF.COMPS:EGK:1,2010-04-01T17:12:00Z,27.6010,-82.7510,0.136,1111122 
COMPS,ioos:station:USF.COMPS:EGK:1,2010-04-01T17:18:00Z,27.6010,-82.7510,0.139,1111122 
COMPS,ioos:station:USF.COMPS:EGK:1,2010-04-01T17:24:00Z,27.6010,-82.7510,0.139,1111122 
COMPS,ioos:station:USF.COMPS:EGK:1,2010-04-01T17:30:00Z,27.6010,-82.7510,0.142,1111122 
COMPS,ioos:station:USF.COMPS:EGK:1,2010-04-01T17:36:00Z,27.6010,-82.7510,0.14,1111122 
COMPS,ioos:station:USF.COMPS:EGK:1,2010-04-01T17:42:00Z,27.6010,-82.7510,0.139,1111122 
COMPS,ioos:station:USF.COMPS:EGK:1,2010-04-01T17:48:00Z,27.6010,-82.7510,0.141,1111122 
COMPS,ioos:station:USF.COMPS:EGK:1,2010-04-01T17:54:00Z,27.6010,-82.7510,0.139,1111122 
COMPS,ioos:station:USF.COMPS:EGK:1,2010-04-01T18:00:00Z,27.6010,-82.7510,0.14,1111122 
COMPS,ioos:station:USF.COMPS:EGK:1,2010-04-01T18:06:00Z,27.6010,-82.7510,0.139,1111122 
COMPS,ioos:station:USF.COMPS:EGK:1,2010-04-01T18:12:00Z,27.6010,-82.7510,0.132,1111122 
COMPS,ioos:station:USF.COMPS:EGK:1,2010-04-01T18:18:00Z,27.6010,-82.7510,0.133,1111122 
COMPS,ioos:station:USF.COMPS:EGK:1,2010-04-01T18:24:00Z,27.6010,-82.7510,0.127,1111122 
COMPS,ioos:station:USF.COMPS:EGK:1,2010-04-01T18:30:00Z,27.6010,-82.7510,0.117,1111122 
COMPS,ioos:station:USF.COMPS:EGK:1,2010-04-01T18:36:00Z,27.6010,-82.7510,0.117,1111122 
COMPS,ioos:station:USF.COMPS:EGK:1,2010-04-01T18:42:00Z,27.6010,-82.7510,0.103,1111122 
COMPS,ioos:station:USF.COMPS:EGK:1,2010-04-01T18:48:00Z,27.6010,-82.7510,0.092,1111122 
COMPS,ioos:station:USF.COMPS:EGK:1,2010-04-01T18:54:00Z,27.6010,-82.7510,0.08,1111122 
COMPS,ioos:station:USF.COMPS:EGK:1,2010-04-01T19:00:00Z,27.6010,-82.7510,0.07,1111122 
COMPS,ioos:station:USF.COMPS:EGK:1,2010-04-01T19:06:00Z,27.6010,-82.7510,0.062,1111122 
COMPS,ioos:station:USF.COMPS:EGK:1,2010-04-01T19:12:00Z,27.6010,-82.7510,0.05,1111122 
COMPS,ioos:station:USF.COMPS:EGK:1,2010-04-01T19:18:00Z,27.6010,-82.7510,0.039,1111122 
COMPS,ioos:station:USF.COMPS:EGK:1,2010-04-01T19:24:00Z,27.6010,-82.7510,0.029,1111122 
COMPS,ioos:station:USF.COMPS:EGK:1,2010-04-01T19:30:00Z,27.6010,-82.7510,0.018,1111122 
COMPS,ioos:station:USF.COMPS:EGK:1,2010-04-01T19:36:00Z,27.6010,-82.7510,0.011,1111122 
COMPS,ioos:station:USF.COMPS:EGK:1,2010-04-01T19:42:00Z,27.6010,-82.7510,-0.004,1111122 
COMPS,ioos:station:USF.COMPS:EGK:1,2010-04-01T19:48:00Z,27.6010,-82.7510,-0.017,1111122 
COMPS,ioos:station:USF.COMPS:EGK:1,2010-04-01T19:54:00Z,27.6010,-82.7510,-0.032,1111122 
COMPS,ioos:station:USF.COMPS:EGK:1,2010-04-01T20:00:00Z,27.6010,-82.7510,-0.047,1111122 
COMPS,ioos:station:USF.COMPS:EGK:1,2010-04-01T20:06:00Z,27.6010,-82.7510,-0.062,1111122 
COMPS,ioos:station:USF.COMPS:EGK:1,2010-04-01T20:12:00Z,27.6010,-82.7510,-0.075,1111122 
COMPS,ioos:station:USF.COMPS:EGK:1,2010-04-01T20:18:00Z,27.6010,-82.7510,-0.086,1111122 
COMPS,ioos:station:USF.COMPS:EGK:1,2010-04-01T20:24:00Z,27.6010,-82.7510,-0.103,1111122 
COMPS,ioos:station:USF.COMPS:EGK:1,2010-04-01T20:30:00Z,27.6010,-82.7510,-0.121,1111122 
COMPS,ioos:station:USF.COMPS:EGK:1,2010-04-01T20:36:00Z,27.6010,-82.7510,-0.138,1111122 
COMPS,ioos:station:USF.COMPS:EGK:1,2010-04-01T20:42:00Z,27.6010,-82.7510,-0.154,1111122 
COMPS,ioos:station:USF.COMPS:EGK:1,2010-04-01T20:48:00Z,27.6010,-82.7510,-0.169,1111122 
COMPS,ioos:station:USF.COMPS:EGK:1,2010-04-01T20:54:00Z,27.6010,-82.7510,-0.186,1111122 
COMPS,ioos:station:USF.COMPS:EGK:1,2010-04-01T21:00:00Z,27.6010,-82.7510,-0.202,1111122 
COMPS,ioos:station:USF.COMPS:EGK:1,2010-04-01T21:06:00Z,27.6010,-82.7510,-0.224,1111122 
COMPS,ioos:station:USF.COMPS:EGK:1,2010-04-01T21:12:00Z,27.6010,-82.7510,-0.245,1111122 
COMPS,ioos:station:USF.COMPS:EGK:1,2010-04-01T21:18:00Z,27.6010,-82.7510,-0.263,1111122 
COMPS,ioos:station:USF.COMPS:EGK:1,2010-04-01T21:24:00Z,27.6010,-82.7510,-0.277,1111122 
COMPS,ioos:station:USF.COMPS:EGK:1,2010-04-01T21:30:00Z,27.6010,-82.7510,-0.292,1111122 
COMPS,ioos:station:USF.COMPS:EGK:1,2010-04-01T21:36:00Z,27.6010,-82.7510,-0.31,1111122 
COMPS,ioos:station:USF.COMPS:EGK:1,2010-04-01T21:42:00Z,27.6010,-82.7510,-0.33,1111122 
COMPS,ioos:station:USF.COMPS:EGK:1,2010-04-01T21:48:00Z,27.6010,-82.7510,-0.349,1111122 
COMPS,ioos:station:USF.COMPS:EGK:1,2010-04-01T21:54:00Z,27.6010,-82.7510,-0.395,1111122 
COMPS,ioos:station:USF.COMPS:EGK:1,2010-04-01T22:00:00Z,27.6010,-82.7510,-0.421,1111122 
COMPS,ioos:station:USF.COMPS:EGK:1,2010-04-01T22:06:00Z,27.6010,-82.7510,-0.415,1111122 
COMPS,ioos:station:USF.COMPS:EGK:1,2010-04-01T22:12:00Z,27.6010,-82.7510,-0.415,1111122 
COMPS,ioos:station:USF.COMPS:EGK:1,2010-04-01T22:18:00Z,27.6010,-82.7510,-0.418,1111122 
COMPS,ioos:station:USF.COMPS:EGK:1,2010-04-01T22:24:00Z,27.6010,-82.7510,-0.418,1111122 
COMPS,ioos:station:USF.COMPS:EGK:1,2010-04-01T22:30:00Z,27.6010,-82.7510,-0.418,1111122 
COMPS,ioos:station:USF.COMPS:EGK:1,2010-04-01T22:36:00Z,27.6010,-82.7510,-0.418,1111122 
COMPS,ioos:station:USF.COMPS:EGK:1,2010-04-01T22:42:00Z,27.6010,-82.7510,-0.418,1111122 
COMPS,ioos:station:USF.COMPS:EGK:1,2010-04-01T22:48:00Z,27.6010,-82.7510,-0.421,1111122 
COMPS,ioos:station:USF.COMPS:EGK:1,2010-04-01T22:54:00Z,27.6010,-82.7510,-0.421,1111122 
COMPS,ioos:station:USF.COMPS:EGK:1,2010-04-01T23:00:00Z,27.6010,-82.7510,-0.421,1111122 
COMPS,ioos:station:USF.COMPS:EGK:1,2010-04-01T23:06:00Z,27.6010,-82.7510,-0.421,1111122 
COMPS,ioos:station:USF.COMPS:EGK:1,2010-04-01T23:12:00Z,27.6010,-82.7510,-0.421,1111122 
COMPS,ioos:station:USF.COMPS:EGK:1,2010-04-01T23:18:00Z,27.6010,-82.7510,-0.42,1111122 
COMPS,ioos:station:USF.COMPS:EGK:1,2010-04-01T23:24:00Z,27.6010,-82.7510,-0.419,1111122 
COMPS,ioos:station:USF.COMPS:EGK:1,2010-04-01T23:30:00Z,27.6010,-82.7510,-0.418,1111122 
COMPS,ioos:station:USF.COMPS:EGK:1,2010-04-01T23:36:00Z,27.6010,-82.7510,-0.417,1111122 
COMPS,ioos:station:USF.COMPS:EGK:1,2010-04-01T23:42:00Z,27.6010,-82.7510,-0.416,1111122 
COMPS,ioos:station:USF.COMPS:EGK:1,2010-04-01T23:48:00Z,27.6010,-82.7510,-0.416,1111122 
COMPS,ioos:station:USF.COMPS:EGK:1,2010-04-01T23:54:00Z,27.6010,-82.7510,-0.416,1111122 
COMPS,ioos:station:USF.COMPS:EGK:1,2010-04-02T00:00:00Z,27.6010,-82.7510,-0.416,1111122 
COMPS,ioos:station:USF.COMPS:EGK:1,2010-04-02T00:06:00Z,27.6010,-82.7510,-0.416,1111122 
COMPS,ioos:station:USF.COMPS:EGK:1,2010-04-02T00:12:00Z,27.6010,-82.7510,-0.416,1111122 
COMPS,ioos:station:USF.COMPS:EGK:1,2010-04-02T00:18:00Z,27.6010,-82.7510,-0.416,1111122 
COMPS,ioos:station:USF.COMPS:EGK:1,2010-04-02T00:24:00Z,27.6010,-82.7510,-0.416,1111122 
COMPS,ioos:station:USF.COMPS:EGK:1,2010-04-02T00:30:00Z,27.6010,-82.7510,-0.416,1111122 
COMPS,ioos:station:USF.COMPS:EGK:1,2010-04-02T00:36:00Z,27.6010,-82.7510,-0.416,1111122 
COMPS,ioos:station:USF.COMPS:EGK:1,2010-04-02T00:42:00Z,27.6010,-82.7510,-0.416,1111122 
COMPS,ioos:station:USF.COMPS:EGK:1,2010-04-02T00:48:00Z,27.6010,-82.7510,-0.416,1111122 
COMPS,ioos:station:USF.COMPS:EGK:1,2010-04-02T00:54:00Z,27.6010,-82.7510,-0.417,1111122 
COMPS,ioos:station:USF.COMPS:EGK:1,2010-04-02T01:00:00Z,27.6010,-82.7510,-0.416,1111122 
COMPS,ioos:station:USF.COMPS:EGK:1,2010-04-02T01:06:00Z,27.6010,-82.7510,-0.416,1111122 
COMPS,ioos:station:USF.COMPS:EGK:1,2010-04-02T01:12:00Z,27.6010,-82.7510,-0.416,1111122 
COMPS,ioos:station:USF.COMPS:EGK:1,2010-04-02T01:18:00Z,27.6010,-82.7510,-0.416,1111122 
COMPS,ioos:station:USF.COMPS:EGK:1,2010-04-02T01:24:00Z,27.6010,-82.7510,-0.416,1111122 
COMPS,ioos:station:USF.COMPS:EGK:1,2010-04-02T01:30:00Z,27.6010,-82.7510,-0.415,1111122 
COMPS,ioos:station:USF.COMPS:EGK:1,2010-04-02T01:36:00Z,27.6010,-82.7510,-0.415,1111122 
COMPS,ioos:station:USF.COMPS:EGK:1,2010-04-02T01:42:00Z,27.6010,-82.7510,-0.415,1111122 
COMPS,ioos:station:USF.COMPS:EGK:1,2010-04-02T01:48:00Z,27.6010,-82.7510,-0.415,1111122 
COMPS,ioos:station:USF.COMPS:EGK:1,2010-04-02T01:54:00Z,27.6010,-82.7510,-0.415,1111122 
COMPS,ioos:station:USF.COMPS:EGK:1,2010-04-02T02:00:00Z,27.6010,-82.7510,-0.415,1111122 
COMPS,ioos:station:USF.COMPS:EGK:1,2010-04-02T02:06:00Z,27.6010,-82.7510,-0.415,1111122 
COMPS,ioos:station:USF.COMPS:EGK:1,2010-04-02T02:12:00Z,27.6010,-82.7510,-0.415,1111122 
COMPS,ioos:station:USF.COMPS:EGK:1,2010-04-02T02:18:00Z,27.6010,-82.7510,-0.415,1111122 
COMPS,ioos:station:USF.COMPS:EGK:1,2010-04-02T02:24:00Z,27.6010,-82.7510,-0.415,1111122 
COMPS,ioos:station:USF.COMPS:EGK:1,2010-04-02T02:30:00Z,27.6010,-82.7510,-0.415,1111122 
COMPS,ioos:station:USF.COMPS:EGK:1,2010-04-02T02:36:00Z,27.6010,-82.7510,-0.415,1111122 
COMPS,ioos:station:USF.COMPS:EGK:1,2010-04-02T02:42:00Z,27.6010,-82.7510,-0.415,1111122 
COMPS,ioos:station:USF.COMPS:EGK:1,2010-04-02T02:48:00Z,27.6010,-82.7510,-0.414,1111122 